Regional Weather Roundup
Issued by NWS

Home | Current Version | Previous Version | Graphics & Text | Print | Product List | Glossary On
Versions: 1 2 3 4 5 6 7 8 9 10 11 12 13 14 15 16 17 18 19 20 21 22 23 24 25 26 27 28 29 30 31 32 33 34 35 36 37 38 39 40 41 42 43 44 45 46 47 48 49 50
275
ASUS43 KMKX 241900
RWRWI

WISCONSIN REGIONAL WEATHER ROUNDUP
NATIONAL WEATHER SERVICE MILWAUKEE/SULLIVAN WI
100 PM CST FRI FEB 24 2017

NOTE: "FAIR" INDICATES FEW OR NO CLOUDS BELOW 12,000 FEET WITH NO
SIGNIFICANT WEATHER AND/OR OBSTRUCTIONS TO VISIBILITY.

WIZ001-002-006>008-014>016-023>028-242000-
NORTHWEST WISCONSIN

CITY           SKY/WX    TMP DP  RH WIND       PRES   REMARKS
SUPERIOR ARPT  CLOUDY    22  12  65 NE10      29.94F WCI  11
ASHLAND        CLOUDY    20  15  81 N18G25    29.89F HAZE    WCI   5
HAYWARD        CLOUDY    21  13  71 NE17G25   29.82F WCI   7
SIREN          CLOUDY    24  15  67 N14G22    29.85F WCI  12
CUMBERLAND     LGT SNOW  23  16  74 N17G24    29.79F WCI   9
RICE LAKE      LGT SNOW  24  20  85 N15       29.81F WCI  11
CHETEK         SNOW      24  20  86 N10G17    29.78F VSB 1/2 WCI  13
LADYSMITH      CLOUDY    26  19  74 N16G24    29.77F WCI  13
EAU CLAIRE     NOT AVBL
MENOMONIE      LGT SNOW  27  21  80 N14G20    29.77F VSB 3/4 WCI  15
NEW RICHMOND   LGT SNOW  25  19  79 N14G21    29.80F VSB 1   WCI  13
OSCEOLA        CLOUDY    26  17  70 N15G24    29.86F WCI  14
$$

WIZ003>005-009-010-017-018-242000-
NORTH CENTRAL WISCONSIN

CITY           SKY/WX    TMP DP  RH WIND       PRES   REMARKS
MANITOWISH WTR LGT SNOW  20  17  88 N10G17    29.75F WCI   9
ARBOR VITAE    LGT SNOW  22  18  83 NE10G16     N/A  WCI  11
WOODRUFF       LGT SNOW  22  18  83 NE10G16     N/A  WCI  11
RHINELANDER    LGT SNOW  23  18  81 N13G21    29.68F WCI  11
EAGLE RIVER    LGT SNOW  21  16  81 NE14G21   29.72F WCI   8
LAND O LAKES   LGT SNOW  20  17  86 NE9G16    29.76F WCI  10
PHILLIPS       CLOUDY    22  16  78 N18G24    29.74F WCI   8
TOMAHAWK       LGT SNOW  23  18  83 N10G17    29.70F WCI  12
MEDFORD        CLOUDY    23  18  81 N16G22    29.68F WCI  10
MERRILL        NOT AVBL
$$

WIZ029-030-035-036-043>047-242000-
CENTRAL WISCONSIN

CITY           SKY/WX    TMP DP  RH WIND       PRES   REMARKS
WAUSAU         LGT SNOW  24  19  81 N15G22    29.65S WCI  11
MOSINEE        LGT SNOW  25  23  93 N16       29.65F WCI  12
MARSHFIELD     CLOUDY    25  20  81 NE12G22   29.63F HAZE    WCI  14
STEVENS POINT  MIX PCPN  24  22  93 N15G24    29.66S WCI  11
WAUPACA        CLOUDY    30  25  84 N13G26    29.63F FOG     WCI  20
WAUTOMA        LGT SNOW  28  25  88 N14G21    29.62S FOG     WCI  17
WISC RAPIDS    FRZ RAIN  27  24  89 NE16      29.65F FOG     WCI  15
CAMP DOUGLAS   NOT AVBL
$$

WIZ011>013-019>022-031-037>040-048>050-242000-
NORTHEAST WISCONSIN

CITY           SKY/WX    TMP DP  RH WIND       PRES   REMARKS
ANTIGO         LGT SNOW  22  19  87 NE18G26   29.64F VSB 3/4 WCI   7
SHAWANO        CLOUDY    28  24  84 NE16G24   29.65F FOG     WCI  17
OCONTO         CLOUDY    27  24  88 N13       29.64F WCI  16
STURGEON BAY   MIX PCPN  28  26  92 NE15G23   29.62F FOG     WCI  16
GREEN BAY      LGT SNOW  29  27  92 N18G36    29.61F FOG     WCI  16
MANITOWOC      NOT AVBL
APPLETON       CLOUDY    25  27 100 NE21G29   29.58F FOG     WCI  10
CLINTONVILLE   CLOUDY    28  23  80 NE20G26   29.64F FOG     WCI  15
OSHKOSH        CLOUDY    28  25  88 N22G31    29.58F FOG     WCI  14
$$

WIZ032>034-041-042-053>061-242000-
SOUTHWEST WISCONSIN

CITY           SKY/WX    TMP DP  RH WIND       PRES   REMARKS
LA CROSSE      LGT SNOW  31  25  78 N15       29.66F WCI  20
SPARTA         CLOUDY    29  26  87 NE16G23   29.66F WCI  17
VIROQUA        CLOUDY    29  27  92 NE12G18   29.59F WCI  20
BOSCOBEL       CLOUDY    32  27  81 NE10G18   29.59F WCI  24
PRAIRIE DU CHI CLOUDY    31  30  94 N14       29.59F FOG     WCI  21
PLATTEVILLE    CLOUDY    32  32 100 N9        29.53F WCI  24
$$

WIZ056-057-062-063-064-067-068-242000-
SOUTH CENTRAL WISCONSIN

CITY           SKY/WX    TMP DP  RH WIND       PRES   REMARKS
REEDSBURG      CLOUDY    28  27  95 NE10G21   29.59F FOG     WCI  19
BARABOO/DELLS  CLOUDY    29  27  93 N8G20     29.59F FOG     WCI  21
LONE ROCK      CLOUDY    31  27  85 NE14G21   29.60S FOG     WCI  21
MINERAL POINT  CLOUDY    32  32 100 NE6       29.53F WCI  26
MADISON        FRZ DRZL  30  28  92 N18       29.55S FOG     WCI  18
MIDDLETON      CLOUDY    32  32 100 NE12      29.56S WCI  23
WATERTOWN      MIX PCPN  32  32 100 NE13G21   29.52F WCI  23
MONROE         MIX PCPN  32  32 100 N15G25    29.50S WCI  22
JANESVILLE     CLOUDY    36  36 100 NE12G17   29.49  FOG     WCI  27
$$

WIZ051-052-058>065-066-070>072-242000-
SOUTHEAST WISCONSIN

CITY           SKY/WX    TMP DP  RH WIND       PRES   REMARKS
MILWAUKEE      CLOUDY    36  34  92 N17G26    29.48F FOG     WCI  26
WAUKESHA       CLOUDY    32  32 100 NE16G23   29.49F FOG     WCI  21
MILWAUKEE/TIMM DRIZZLE   34  30  86 NE17G29   29.51F WCI  23
RACINE         LGT RAIN  36  34  92 N16G26    29.48F FOG     WCI  26
KENOSHA        CLOUDY    36  35  96 N12G18    29.47F FOG     WCI  28
FOND DU LAC    MIX PCPN  29  25  85 N24G30    29.56F FOG     WCI  15
SHEBOYGAN      MIX PCPN  32  31  96 NE22G28   29.53F VSB 1   WCI  19
WEST BEND      LGT RAIN  32  32 100 NE8       29.52F WCI  25
JUNEAU         LGT SNOW  31  29  95 N12       29.55S WCI  21
$$

LSZ147-162-242000-
LAKE SUPERIOR

STATION/POSITION TIME  TEMP    WIND        PRES    WAVE
                       AIR SEA DIR/SP/G            HT/PER
                 (UTC) (F)     (DEG/KT/KT) (MB)    (FT/S)
DEVILS ISLAND    1800   17      30/ 19/ 22 1015.8F
PORT WING        1840   20      30/ 17/ 22 1013.9F
SAXON HARBOR     1830   24      30/ 22/ 27 1011.9F
$$

LMZ867-665-643>646-242000-
LAKE MICHIGAN

STATION/POSITION TIME  TEMP    WIND        PRES    WAVE
                       AIR SEA DIR/SP/G            HT/PER
                 (UTC) (F)     (DEG/KT/KT) (MB)    (FT/S)
CHAMBERS ISLAND  1840   28     360/ 21/ 32 1003.7F
NORTHPORT PIER   1840   28      20/ 17/ 22 1004.4F
SISTER BAY       1750   29     360/ 17/ 28   N/A
KEWAUNEE LAKESHO 1830   31      30/ 19/ 27 1002.1F
SHEBOYGAN LAKESH 1800   33      20/ 28/ 31 1001.1F
PORT WASHINGTON  1840   34      30/ 15/ 21 1000.7F
MILWAUKEE LAKESH 1830   35      20/ 20/ 25   N/A
KENOSHA   LAKESH 1800   36      20/ 20/ 23  998.6
$$

TC  - TEMPERATURE IN CELSIUS
VSB - VISIBILITY IN STATUTE MILES
WCI - WIND CHILL INDEX
HX  - HEAT INDEX





USA.gov is the U.S. government's official web portal to all federal, state and local government web resources and services.